HIMAWARI-8

Last updated on Thu Jul 03 2025 00:02:22 GMT+0000 (Coordinated Universal Time)

1 40267U 14060A 25183.59448902 -.00000269 00000+0 00000+0 0 9996 2 40267 0.0166 51.1580 0001019 66.8538 157.5346 1.00269412 39245
UTC large
Height (km)
Speed (km/s)
/
Latitude / Longitude
Inclination (degrees)
Orbital Period (minutes)
Azimuth
Elevation
Range (km)
Doppler Factor

Next 0 passes for location: London (51.5072 / 0.1276)

Sorry there are no passes over London.